Find Zhangheng 1-02

NORAD ID: 64393 Int'l Des: 2025-128 Owner: CAS Country: CN operational
LEOCIRCULARRETROGRADESSO

实时位置

正在加载3D地球...

关于 Zhangheng 1-02

正在加载描述...

即将过境

Passes for default location (London). Set your location on the main map for personalized predictions.

高度历史

Loading altitude history...

两行轨道根数

1 64393U 25128A 26103.57897031 -.00000026 00000-0 18843-5 0 9993
2 64393 97.3499 231.8907 0012241 345.6263 14.4623 15.20973848 46105
Epoch: Apr 13, 2026 • Age: 31 hours

当前状态

高度 509.3 km
速度 7.61 km/s
星下点 -37.58°S, 76.14°E
发射日期 Jun 14, 2025
运行时间 0.8 years
类型 other

技术详情

分类 Payload
质量 730.00 kg
干质量 700.00 kg
总质量 730.00 kg
长度 1.40 m
直径 1.00 m
跨度 4.00 m
形状 Box+2 pan
制造商 DFHZ
平台类型 CAST-2000
阶段状态 In Orbit
所有者/国家 CAS/CN

Most Searched